DW5164 Weather Reports


time (UTC)temp
C
wind
direction
speed
KPH
gust
KPH
rain 1hr
cm
rain 24hr
cm
rain mn
cm
humidity
%
barometer
mb
20260831151915 32 251 4.8 4.8 0.00 0.00 0.00 49 1011.4
20260831151416 32 70 1.6 8.0 0.00 0.00 0.00 48 1011.4
20260831150915 33 291 8.0 9.7 0.00 0.00 0.00 48 1011.4
20260831150415 33 262 3.2 11.3 0.00 0.00 0.00 49 1011.5
20260831145416 32 347 1.6 4.8 0.00 0.00 0.00 48 1011.5
20260831144916 32 240 0.0 4.8 0.00 0.00 0.00 47 1011.6
20260831144415 32 293 3.2 9.7 0.00 0.00 0.00 50 1011.6
20260831143415 33 245 8.0 14.5 0.00 0.00 0.00 48 1011.6
20260831142915 33 285 8.0 11.3 0.00 0.00 0.00 48 1011.6
20260831142415 32 311 3.2 8.0 0.00 0.00 0.00 49 1011.6
20260831141415 32 213 8.0 12.9 0.00 0.00 0.00 48 1011.6
20260831140915 32 288 1.6 11.3 0.00 0.00 0.00 48 1011.7
20260831140415 32 267 8.0 11.3 0.00 0.00 0.00 50 1011.7
20260831134915 32 303 4.8 14.5 0.00 0.00 0.00 48 1011.8
20260831133916 32 286 8.0 19.3 0.00 0.00 0.00 51 1011.8
20260831133415 32 250 8.0 12.9 0.00 0.00 0.00 51 1011.8
20260831132915 32 241 4.8 9.7 0.00 0.00 0.00 50 1011.9
20260831132415 32 223 3.2 8.0 0.00 0.00 0.00 49 1012.0
20260831131915 32 220 8.0 11.3 0.00 0.00 0.00 50 1012.0
20260831131415 32 256 4.8 11.3 0.00 0.00 0.00 51 1012.1
20260831130916 32 262 6.4 11.3 0.00 0.00 0.00 50 1012.2
20260831125915 32 243 6.4 11.3 0.00 0.00 0.00 51 1012.2
20260831125415 32 234 3.2 9.7 0.00 0.00 0.00 52 1012.2
20260831124415 32 260 8.0 14.5 0.00 0.00 0.00 51 1012.4
20260831123916 32 283 4.8 9.7 0.00 0.00 0.00 51 1012.5
20260831123414 32 309 4.8 8.0 0.00 0.00 0.00 52 1012.5
20260831122914 32 31 4.8 8.0 0.00 0.00 0.00 52 1012.5
20260831122415 32 308 6.4 11.3 0.00 0.00 0.00 52 1012.5
20260831121915 31 5 3.2 4.8 0.00 0.00 0.00 52 1012.6
20260831121414 31 213 3.2 8.0 0.00 0.00 0.00 52 1012.6
20260831120915 31 265 6.4 11.3 0.00 0.00 0.00 53 1012.6
20260831120414 32 287 9.7 12.9 0.00 0.00 0.00 53 1012.7
20260831115915 32 315 4.8 11.3 0.00 0.00 0.00 53 1012.7
20260831115416 32 353 4.8 9.7 0.00 0.00 0.00 53 1012.7
20260831114916 32 337 6.4 14.5 0.00 0.00 0.00 52 1012.7
20260831114415 32 296 8.0 12.9 0.00 0.00 0.00 52 1012.8
20260831113914 32 312 3.2 11.3 0.00 0.00 0.00 53 1012.8
20260831113415 31 245 4.8 8.0 0.00 0.00 0.00 54 1012.9
20260831112915 31 261 8.0 16.1 0.00 0.00 0.00 54 1013.0
20260831112414 31 267 8.0 16.1 0.00 0.00 0.00 55 1012.9
20260831111415 31 327 4.8 19.3 0.00 0.00 0.00 54 1013.0
20260831110916 31 300 4.8 11.3 0.00 0.00 0.00 55 1013.0
20260831110414 30 152 4.8 8.0 0.00 0.00 0.00 56 1013.0
20260831105915 30 240 3.2 9.7 0.00 0.00 0.00 56 1013.0
20260831105414 31 246 6.4 14.5 0.00 0.00 0.00 55 1013.0
20260831104914 30 242 3.2 9.7 0.00 0.00 0.00 58 1013.1
20260831104414 30 202 6.4 9.7 0.00 0.00 0.00 57 1013.1
20260831103914 30 214 4.8 8.0 0.00 0.00 0.00 57 1013.1
20260831103414 30 267 1.6 4.8 0.00 0.00 0.00 57 1013.2
20260831102915 30 341 3.2 8.0 0.00 0.00 0.00 60 1013.2
20260831102414 30 253 6.4 9.7 0.00 0.00 0.00 59 1013.2
20260831101414 30 257 3.2 8.0 0.00 0.00 0.00 60 1013.2
20260831100414 30 286 1.6 4.8 0.00 0.00 0.00 60 1013.3
20260831095914 29 290 8.0 12.9 0.00 0.00 0.00 63 1013.4
20260831095414 29 242 3.2 8.0 0.00 0.00 0.00 63 1013.4
20260831094914 29 243 4.8 9.7 0.00 0.00 0.00 65 1013.5
20260831093915 28 255 4.8 9.7 0.00 0.00 0.00 66 1013.5
20260831093414 28 276 8.0 11.3 0.00 0.00 0.00 67 1013.6
20260831092914 28 283 6.4 11.3 0.00 0.00 0.00 68 1013.7
20260831092415 28 325 4.8 9.7 0.00 0.00 0.00 67 1013.7
20260831091913 28 260 4.8 9.7 0.00 0.00 0.00 67 1013.7
20260831091414 28 263 4.8 9.7 0.00 0.00 0.00 67 1013.7
20260831090914 28 211 4.8 8.0 0.00 0.00 0.00 66 1013.7
20260831090414 28 305 3.2 9.7 0.00 0.00 0.00 67 1013.8
20260831085414 28 302 4.8 12.9 0.00 0.00 0.00 67 1013.8
20260831084914 28 296 4.8 9.7 0.00 0.00 0.00 68 1013.8
20260831083914 27 307 3.2 9.7 0.00 0.00 0.00 70 1013.8
20260831083413 27 297 3.2 9.7 0.00 0.00 0.00 71 1013.8
20260831082914 27 313 4.8 9.7 0.00 0.00 0.00 71 1013.7
20260831082414 27 295 4.8 9.7 0.00 0.00 0.00 72 1013.7
20260831080914 26 252 1.6 8.0 0.00 0.00 0.00 75 1013.5
20260831075914 26 309 3.2 8.0 0.00 0.00 0.00 74 1013.5
20260831075414 26 323 4.8 11.3 0.00 0.00 0.00 75 1013.5
20260831074914 25 296 4.8 8.0 0.00 0.00 0.00 78 1013.5
20260831073914 25 254 3.2 4.8 0.00 0.00 0.00 78 1013.4
20260831073414 25 256 3.2 4.8 0.00 0.00 0.00 78 1013.4
20260831072914 25 172 1.6 4.8 0.00 0.00 0.00 78 1013.3
20260831072415 24 213 0.0 0.0 0.00 0.00 0.00 79 1013.3
20260831071914 24 225 1.6 3.2 0.00 0.00 0.00 79 1013.2
20260831071413 23 222 1.6 4.8 0.00 0.00 0.00 80 1013.3
20260831070414 23 228 1.6 4.8 0.00 0.00 0.00 82 1013.2
20260831065913 23 239 4.8 4.8 0.00 0.00 0.00 82 1013.3
20260831065415 23 248 3.2 4.8 0.00 0.00 0.00 83 1013.3
20260831064914 23 275 3.2 4.8 0.00 0.00 0.00 83 1013.3
20260831064414 22 274 0.0 0.0 0.00 0.00 0.00 84 1013.2
20260831063913 22 281 0.0 3.2 0.00 0.00 0.00 84 1013.2
20260831062414 22 261 3.2 4.8 0.00 0.00 0.00 87 1013.3
20260831061413 21 250 4.8 4.8 0.00 0.00 0.00 87 1013.3
20260831060913 21 263 3.2 4.8 0.00 0.00 0.00 88 1013.3
20260831055913 20 236 1.6 4.8 0.00 0.00 0.00 90 1013.2
20260831054914 20 236 3.2 4.8 0.00 0.00 0.00 91 1013.2
20260831053914 20 286 0.0 0.0 0.00 0.00 0.00 91 1013.1
20260831052914 20 302 0.0 0.0 0.00 0.00 0.00 92 1013.0
20260831052413 19 306 0.0 0.0 0.00 0.00 0.00 92 1013.0
20260831051913 19 306 0.0 0.0 0.00 0.00 0.00 92 1013.0
20260831051414 19 305 0.0 0.0 0.00 0.00 0.00 92 1013.0
20260831050914 19 290 0.0 0.0 0.00 0.00 0.00 92 1013.0
20260831050413 19 190 0.0 0.0 0.00 0.00 0.00 92 1012.9
20260831045913 19 190 0.0 0.0 0.00 0.00 0.00 92 1012.8
20260831045413 19 190 0.0 0.0 0.00 0.00 0.00 92 1012.8
20260831044913 19 190 0.0 0.0 0.00 0.00 0.00 93 1012.7
20260831044413 19 190 0.0 0.0 0.00 0.00 0.00 93 1012.6
20260831043914 19 190 0.0 0.0 0.00 0.00 0.00 93 1012.5
20260831043413 19 190 0.0 0.0 0.00 0.00 0.00 93 1012.6
20260831042913 19 190 0.0 0.0 0.00 0.00 0.00 93 1012.6
20260831042413 19 190 0.0 0.0 0.00 0.00 0.00 93 1012.5
20260831041913 19 155 0.0 0.0 0.00 0.00 0.00 93 1012.5
20260831041413 19 153 0.0 0.0 0.00 0.00 0.00 93 1012.6
20260831040413 19 89 0.0 0.0 0.00 0.00 0.00 93 1012.7
20260831035913 20 89 0.0 0.0 0.00 0.00 0.00 93 1012.6
20260831035413 19 89 0.0 0.0 0.00 0.00 0.00 93 1012.6
20260831034913 19 89 0.0 0.0 0.00 0.00 0.00 94 1012.6
20260831034414 19 89 0.0 0.0 0.00 0.00 0.00 93 1012.6
20260831033913 19 89 0.0 0.0 0.00 0.00 0.00 93 1012.5
20260831033413 19 89 0.0 0.0 0.00 0.00 0.00 93 1012.6
20260831032914 20 89 0.0 0.0 0.00 0.00 0.00 93 1012.7
20260831032414 19 89 0.0 0.0 0.00 0.00 0.00 93 1012.8
20260831031413 19 89 0.0 0.0 0.00 0.00 0.00 93 1012.8
20260831030913 19 89 0.0 0.0 0.00 0.00 0.00 93 1012.7
20260831030413 19 89 0.0 0.0 0.00 0.00 0.00 93 1012.8
20260831025413 20 89 0.0 0.0 0.00 0.00 0.00 92 1012.9
20260831024913 20 89 0.0 0.0 0.00 0.00 0.00 92 1012.8
20260831024414 20 89 0.0 0.0 0.00 0.00 0.00 92 1012.9
20260831023913 20 89 0.0 0.0 0.00 0.00 0.00 91 1012.9
20260831023413 20 89 0.0 0.0 0.00 0.00 0.00 91 1012.9
20260831022913 20 89 0.0 3.2 0.00 0.00 0.00 90 1012.9
20260831022413 20 89 1.6 8.0 0.00 0.00 0.00 90 1012.9
20260831021912 20 103 3.2 4.8 0.00 0.00 0.00 89 1012.9
20260831021413 20 49 1.6 3.2 0.00 0.00 0.00 89 1012.9
20260831020913 20 49 0.0 3.2 0.00 0.00 0.00 89 1012.9
20260831020413 20 49 0.0 3.2 0.00 0.00 0.00 89 1013.0
20260831015913 20 49 1.6 4.8 0.00 0.00 0.00 90 1012.9
20260831014912 20 49 3.2 4.8 0.00 0.00 0.00 89 1012.9
20260831014413 20 49 1.6 3.2 0.00 0.00 0.00 89 1012.9
20260831013913 20 49 3.2 4.8 0.00 0.00 0.00 88 1013.0
20260831013414 20 49 1.6 4.8 0.00 0.00 0.00 88 1012.9
20260831012913 21 49 1.6 3.2 0.00 0.00 0.00 87 1013.0
20260831012412 21 49 1.6 4.8 0.00 0.00 0.00 86 1013.0
20260831011912 21 49 0.0 0.0 0.00 0.00 0.00 87 1013.0
20260831010912 21 49 0.0 1.6 0.00 0.00 0.00 86 1013.0
20260831010413 21 49 1.6 3.2 0.00 0.00 0.00 86 1013.0
20260831005912 21 49 1.6 3.2 0.00 0.00 0.00 85 1013.0
20260831005413 21 49 1.6 3.2 0.00 0.00 0.00 85 1013.0
20260831004913 21 49 1.6 3.2 0.00 0.00 0.00 86 1012.9
20260831004413 21 49 3.2 4.8 0.00 0.00 0.00 86 1013.0
20260831003913 21 49 1.6 4.8 0.00 0.00 0.00 86 1013.0
20260831003413 21 49 1.6 4.8 0.00 0.00 0.00 86 1013.1
20260831002913 21 49 3.2 4.8 0.00 0.00 0.00 85 1013.0
20260831002413 21 49 1.6 4.8 0.00 0.00 0.00 85 1013.1
20260831001913 21 49 1.6 4.8 0.00 0.00 0.00 84 1013.1
20260831001413 21 49 3.2 4.8 0.00 0.00 0.00 84 1013.1
20260831000913 21 49 1.6 4.8 0.00 0.00 0.00 84 1013.2
20260831000413 21 49 3.2 4.8 0.00 0.00 0.00 83 1013.2
20260830235913 21 49 3.2 4.8 0.00 0.00 0.00 83 1013.2
20260830235413 21 49 1.6 3.2 0.00 0.00 0.00 83 1013.2
20260830234912 21 49 0.0 3.2 0.00 0.00 0.00 82 1013.3
20260830233912 21 49 1.6 3.2 0.00 0.00 0.00 83 1013.2
20260830233413 21 49 0.0 3.2 0.00 0.00 0.00 82 1013.3
20260830232912 22 49 3.2 4.8 0.00 0.00 0.00 82 1013.3
20260830232413 21 49 1.6 4.8 0.00 0.00 0.00 82 1013.3
20260830231913 21 49 0.0 3.2 0.00 0.00 0.00 83 1013.3
20260830231413 21 49 0.0 1.6 0.00 0.00 0.00 84 1013.4
20260830230912 21 49 1.6 3.2 0.00 0.00 0.00 84 1013.3
20260830230413 21 49 0.0 0.0 0.00 0.00 0.00 83 1013.3
20260830225912 22 49 0.0 1.6 0.00 0.00 0.00 82 1013.4
20260830225413 22 49 0.0 1.6 0.00 0.00 0.00 82 1013.3
20260830224913 22 49 0.0 0.0 0.00 0.00 0.00 82 1013.3
20260830224413 22 49 0.0 1.6 0.00 0.00 0.00 81 1013.3
20260830223912 22 49 0.0 0.0 0.00 0.00 0.00 81 1013.3
20260830223412 22 49 0.0 0.0 0.00 0.00 0.00 82 1013.2
20260830222412 22 49 1.6 3.2 0.00 0.00 0.00 81 1013.2
20260830221912 22 49 1.6 1.6 0.00 0.00 0.00 81 1013.2
20260830221413 22 49 0.0 0.0 0.00 0.00 0.00 83 1013.2
20260830220912 22 49 0.0 1.6 0.00 0.00 0.00 83 1013.2
20260830220412 22 49 0.0 0.0 0.00 0.00 0.00 83 1013.2
20260830215912 22 49 0.0 0.0 0.00 0.00 0.00 82 1013.2
20260830215413 22 49 0.0 0.0 0.00 0.00 0.00 83 1013.2
20260830214412 22 49 1.6 3.2 0.00 0.00 0.00 83 1013.2
20260830213912 22 115 1.6 3.2 0.00 0.00 0.00 85 1013.2
20260830213412 21 115 0.0 1.6 0.00 0.00 0.00 85 1013.2
20260830212912 21 115 3.2 4.8 0.00 0.00 0.00 85 1013.2
20260830212412 21 115 3.2 11.3 0.00 0.00 0.00 84 1013.2
20260830211912 22 112 4.8 14.5 0.00 0.00 0.00 82 1013.2
20260830211412 22 52 0.0 0.0 0.00 0.00 0.00 83 1013.1
20260830210912 22 52 0.0 0.0 0.00 0.00 0.00 82 1013.0
20260830210412 22 52 0.0 0.0 0.00 0.00 0.00 82 1013.1
20260830205912 22 52 0.0 0.0 0.00 0.00 0.00 82 1013.0
20260830205412 22 52 0.0 0.0 0.00 0.00 0.00 81 1013.0
20260830204913 22 52 0.0 0.0 0.00 0.00 0.00 81 1013.0
20260830204412 23 52 0.0 0.0 0.00 0.00 0.00 80 1013.0
20260830203912 23 52 0.0 0.0 0.00 0.00 0.00 79 1013.0
20260830201912 23 52 0.0 0.0 0.00 0.00 0.00 78 1012.9
20260830201412 23 52 0.0 0.0 0.00 0.00 0.00 78 1012.8
20260830200912 23 52 0.0 0.0 0.00 0.00 0.00 76 1012.9
20260830200412 23 52 0.0 0.0 0.00 0.00 0.00 77 1012.8
20260830195912 23 52 0.0 0.0 0.00 0.00 0.00 75 1012.8
20260830195412 23 52 0.0 0.0 0.00 0.00 0.00 75 1012.8
20260830194411 23 52 0.0 0.0 0.00 0.00 0.00 76 1012.7
20260830193912 23 52 0.0 0.0 0.00 0.00 0.00 75 1012.7
20260830193412 23 52 0.0 0.0 0.00 0.00 0.00 76 1012.7
20260830192911 23 63 0.0 0.0 0.00 0.00 0.00 76 1012.6
20260830191912 24 63 0.0 0.0 0.00 0.00 0.00 75 1012.6
20260830191412 24 63 0.0 0.0 0.00 0.00 0.00 75 1012.5
20260830190911 24 63 0.0 0.0 0.00 0.00 0.00 75 1012.5
20260830185912 25 63 0.0 0.0 0.00 0.00 0.00 73 1012.4
20260830185412 25 63 0.0 0.0 0.00 0.00 0.00 72 1012.4
20260830184912 25 63 0.0 0.0 0.00 0.00 0.00 72 1012.5
20260830184411 25 63 0.0 0.0 0.00 0.00 0.00 71 1012.4
20260830183411 25 63 0.0 0.0 0.00 0.00 0.00 70 1012.2
20260830182412 25 63 0.0 0.0 0.00 0.00 0.00 67 1012.1
20260830180911 26 63 0.0 0.0 0.00 0.00 0.00 67 1012.0
20260830180411 26 63 0.0 0.0 0.00 0.00 0.00 67 1012.0
20260830175412 26 63 0.0 0.0 0.00 0.00 0.00 66 1012.0
20260830174911 27 63 0.0 0.0 0.00 0.00 0.00 66 1011.9
20260830174411 27 63 0.0 0.0 0.00 0.00 0.00 65 1011.9
20260830173912 27 63 0.0 0.0 0.00 0.00 0.00 64 1011.9
20260830172912 28 63 0.0 0.0 0.00 0.00 0.00 58 1011.8
20260830171911 29 76 0.0 1.6 0.00 0.00 0.00 57 1011.8
20260830171411 29 76 1.6 3.2 0.00 0.00 0.00 56 1011.8
20260830165911 30 64 1.6 3.2 0.00 0.00 0.00 56 1011.9
20260830164411 30 65 3.2 4.8 0.00 0.00 0.00 50 1011.9
20260830163912 30 61 3.2 4.8 0.00 0.00 0.00 51 1012.0
20260830162912 30 76 3.2 4.8 0.00 0.00 0.00 48 1012.0
20260830162412 30 76 3.2 4.8 0.00 0.00 0.00 48 1012.0
20260830161911 31 91 1.6 4.8 0.00 0.00 0.00 47 1012.0
20260830161411 31 40 1.6 3.2 0.00 0.00 0.00 49 1012.0
20260830160911 31 77 1.6 4.8 0.00 0.00 0.00 48 1012.1
20260830160411 31 91 3.2 4.8 0.00 0.00 0.00 48 1012.1
20260830155911 31 91 3.2 4.8 0.00 0.00 0.00 47 1012.1
20260830155411 31 75 3.2 4.8 0.00 0.00 0.00 47 1012.2
20260830154911 31 71 3.2 8.0 0.00 0.00 0.00 47 1012.1
20260830154411 31 108 3.2 4.8 0.00 0.00 0.00 45 1012.2
20260830153911 31 108 3.2 4.8 0.00 0.00 0.00 46 1012.2
20260830153410 31 117 3.2 4.8 0.00 0.00 0.00 43 1012.2
20260830152911 31 106 3.2 8.0 0.00 0.00 0.00 44 1012.2
20260830152411 31 94 3.2 4.8 0.00 0.00 0.00 42 1012.3